Snowfall_Accumulation
0.0 0.0 0.0 0.0 0.0 0.0 0.0 0.0 1.1 0.0 0.0 0.0 0.0 0.0 0.0 0.0 0.0 0.0 0.0 0.0 0.0 0.0 0.0 0.0 0.0 0.0 0.0 0.0 0.0 0.0 0.0 0.0 0.0 0.0 0.0 0.0 0.0 0.0 0.0 0.0 0.0 0.0 0.0 0.0
0.1 0.0 0.0 0.0 0.0 0.1 0.0 0.0 0.0 0.0 0.0 0.0 0.0 0.0 0.0 0.0 0.0 0.0 0.0 0.0 0.0 0.0 0.0 0.0 0.0 0.0 0.0 0.0 0.0 0.0 0.0 0.0 0.0 0.0 0.0 0.0 0.0 0.0 0.0 0.0 0.0 0.0 0.0 0.0
0.2 0.0 0.0 0.1 0.0 0.0 0.0 0.0 0.0 0.0 0.0 0.0 0.0 0.0 0.0 0.0 0.0 0.0 0.0 0.0 0.0 0.0 0.0 0.0 0.0 0.0 0.0 0.0 0.0 0.0 0.0 0.0 0.0 0.0 0.0 0.0 0.0 0.0 0.0 0.0 0.0 0.0 0.0 0.0
1.1 0.0 0.7 0.0 0.0 0.0 0.0 0.0 0.1 0.0 0.0 0.0 0.0 0.0 0.0 0.0 0.0 0.0 0.0 0.0 0.0 0.0 0.0 0.0 0.0 0.0 0.0 0.0 0.0 0.0 0.0 0.0 0.0 0.0 0.0 0.0 0.0 0.0 0.0 0.0 0.0 0.0 0.0 0.0
0.9 0.3 0.0 0.0 0.0 0.0 0.0 0.1 0.0 0.0 0.0 0.0 0.0 0.0 0.0 0.0 0.0 0.0 0.0 0.0 0.0 0.0 0.0 0.0 0.0 0.0 0.0 0.0 0.0 0.0 0.0 0.0 0.0 0.0 0.0 0.0 0.0 0.0 0.0 0.0 0.0 0.0 0.0 0.0
0.2 1.4 0.1 0.0 0.0 0.0 0.0 0.6 0.0 0.0 0.0 0.0 0.0 0.0 0.0 0.0 0.0 0.0 0.0 0.0 0.0 0.0 0.0 0.0 0.0 0.0 0.0 0.0 0.0 0.0 0.0 0.0 0.0 0.0 0.0 0.1 0.0 0.0 0.0 0.0 0.0 0.0 0.0 0.0
0.2 1.8 0.0 0.0 0.0 0.0 0.2 0.2 0.0 0.0 0.0 0.0 0.0 0.0 0.0 0.0 0.0 0.0 0.0 0.0 0.0 0.0 0.0 0.0 0.0 0.0 0.0 0.0 0.0 0.0 0.0 0.0 0.0 0.0 0.0 0.0 0.1 0.0 0.0 0.0 0.0 0.0 0.0 0.0
1.3 2.5 3.2 0.0 0.0 0.2 0.1 0.0 0.0 0.0 0.0 0.0 0.0 0.0 0.0 0.0 0.0 0.0 0.0 0.0 0.0 0.0 0.0 0.0 0.0 0.0 0.0 0.0 0.0 0.0 0.0 0.0 0.0 0.0 0.0 0.0 0.1 0.0 0.0 0.1 0.4 0.3 0.4 0.2
0.4 0.1 0.0 0.0 0.0 0.0 0.0 0.0 0.0 0.0 0.0 0.0 0.0 0.0 0.0 0.0 0.0 0.0 0.0 0.0 0.0 0.0 0.0 0.0 0.0 0.0 0.0 0.0 0.0 0.0 0.0 0.0 0.0 0.0 0.0 0.0 0.2 0.2 0.5 0.4 1.0 0.9 0.8 0.7
0.1 0.0 0.0 0.0 0.0 0.0 0.0 0.0 0.0 0.0 0.0 0.0 0.0 0.0 0.0 0.0 0.0 0.0 0.0 0.0 0.0 0.0 0.0 0.0 0.0 0.0 0.0 0.0 0.0 0.1 0.3 0.2 0.1 0.1 0.1 0.0 0.1 0.4 1.2 1.1 1.3 1.0 1.2 1.1
0.0 0.0 0.0 0.0 0.0 0.0 0.0 0.0 0.0 0.0 0.0 0.0 0.0 0.0 0.0 0.0 0.0 0.0 0.0 0.0 0.0 0.0 0.0 0.0 0.0 0.0 0.0 0.0 0.1 0.2 0.2 0.4 0.5 0.3 0.3 0.7 0.6 1.5 1.2 0.3 1.1 1.4 0.9 0.7
0.0 0.0 0.0 0.0 0.0 0.0 0.0 0.0 0.0 0.0 0.0 0.0 0.0 0.0 0.0 0.0 0.0 0.0 0.1 0.0 0.0 0.0 0.0 0.0 0.0 0.0 0.0 0.0 0.2 0.5 0.4 0.5 1.0 1.6 1.4 1.6 2.5 2.7 nan nan nan nan nan 0.3
0.0 0.0 0.0 0.0 0.0 0.0 0.0 0.0 0.0 0.0 0.0 0.0 0.0 0.0 0.0 0.0 0.0 nan 0.0 0.0 0.0 0.0 0.0 0.0 0.0 0.0 0.0 0.1 0.2 0.4 0.7 0.6 0.7 1.3 1.7 2.3 2.8 2.7 3.5 0.6 nan nan nan nan
0.0 0.0 0.0 0.0 0.0 0.0 0.0 0.0 0.0 0.0 0.0 0.0 0.0 0.0 0.0 0.0 0.0 0.0 0.0 0.0 0.0 0.0 0.0 0.0 0.1 0.1 0.1 0.2 0.2 0.2 0.4 nan 1.3 1.3 1.3 2.1 2.5 2.3 2.0 2.8 3.6 2.8 nan nan
0.0 0.0 0.0 0.0 0.0 0.0 0.0 0.0 0.0 0.0 0.0 0.0 0.0 0.0 0.0 0.2 0.1 0.0 0.0 0.0 0.0 0.0 0.0 0.2 0.1 0.1 0.1 0.2 0.6 0.4 0.4 0.7 0.8 1.0 1.1 1.4 1.9 2.2 2.1 2.9 3.1 2.8 1.6 0.5
0.0 0.0 0.0 0.0 0.0 0.0 0.0 0.0 0.0 0.0 0.0 0.0 0.0 0.0 0.1 0.1 0.1 0.0 0.0 0.1 1.1 0.6 0.3 0.3 0.2 0.1 0.1 0.6 0.3 0.2 0.1 nan 1.1 1.3 1.2 1.7 2.0 2.5 3.3 3.0 3.6 2.3 2.1 1.6
0.6 0.4 0.1 0.1 0.0 0.0 0.0 0.0 0.1 0.1 0.2 0.1 0.1 0.1 0.1 0.1 0.0 0.0 0.1 0.2 0.4 0.5 0.5 0.5 0.5 0.2 0.7 0.3 0.5 0.4 0.5 0.5 nan 1.2 1.7 1.7 1.8 2.4 2.5 3.1 3.1 2.7 2.5 1.0
0.0 0.0 0.1 0.8 1.1 0.6 0.1 0.0 0.0 0.1 0.3 0.4 0.2 0.2 0.3 0.4 0.8 0.4 0.3 0.3 0.2 0.2 0.3 0.3 0.6 1.1 0.2 0.3 0.9 0.9 0.5 0.7 1.0 1.9 1.5 2.2 2.2 1.9 2.7 2.9 2.7 3.3 3.2 1.2
0.0 0.2 0.1 0.1 0.3 0.7 0.3 0.7 0.3 0.3 0.5 0.6 1.2 1.2 1.5 1.1 0.8 0.9 0.7 0.5 0.3 0.2 0.0 0.3 nan 0.1 0.2 0.2 0.9 0.6 1.0 1.8 2.3 2.6 2.2 nan 2.2 2.1 2.7 2.7 3.3 3.1 2.5 3.1
0.0 0.0 0.0 0.2 0.0 0.3 0.9 0.1 0.4 0.9 1.0 1.2 1.3 1.1 0.9 0.7 0.7 0.7 0.6 0.9 1.3 2.0 2.1 0.9 0.2 0.2 0.3 0.3 nan 0.9 1.8 2.8 3.6 3.5 2.9 3.0 2.9 3.2 2.9 nan 3.2 3.7 3.8 3.8
2.0 1.4 1.0 0.9 0.6 0.5 1.2 1.7 1.8 1.4 1.6 1.6 1.9 1.4 1.6 1.5 1.1 0.8 0.6 0.4 0.2 0.9 0.3 nan 0.3 1.1 0.8 1.1 0.8 1.5 2.9 4.2 5.2 5.3 3.9 4.1 3.7 3.4 3.5 3.4 4.3 4.1 5.1 4.3
2.0 3.6 4.5 2.7 1.7 1.7 2.0 2.1 1.6 1.5 1.5 1.3 1.1 0.8 0.6 0.6 0.5 0.5 0.7 2.4 1.1 nan 0.7 0.5 1.3 nan 2.1 nan 3.6 3.9 4.5 4.8 6.2 6.2 6.3 5.0 4.7 5.1 4.3 4.3 5.3 6.4 6.6 5.8
3.9 5.0 3.5 4.7 5.9 6.3 3.5 3.6 2.6 2.1 2.0 2.1 2.2 1.6 2.9 3.0 2.3 3.4 2.5 1.8 2.2 nan 1.2 1.9 nan nan nan 5.1 4.9 5.0 5.3 5.7 6.3 6.8 7.0 6.5 5.4 5.0 6.5 7.3 7.4 6.9 7.1 6.5
5.1 5.4 6.6 7.2 6.8 5.9 5.1 7.0 6.1 6.2 6.1 4.9 4.9 5.3 5.1 5.7 3.7 4.1 4.1 nan nan 4.8 4.7 5.4 nan nan nan 5.6 6.3 6.4 6.7 7.0 8.6 9.1 7.9 nan 7.0 8.3 8.2 8.3 10.4 7.2 7.0 7.1
5.0 5.2 5.9 5.3 4.7 6.4 5.2 6.0 4.5 5.5 5.4 4.4 5.0 5.7 5.5 6.6 8.9 9.5 6.0 6.9 nan 5.9 5.2 nan nan nan 4.8 5.8 6.9 7.3 8.8 10.0 11.7 13.7 12.4 14.0 15.2 14.3 10.7 11.5 11.0 10.1 11.6 9.2
3.3 5.8 5.4 5.0 6.4 5.3 5.3 3.5 4.5 5.7 4.3 4.0 3.9 5.1 5.3 5.9 6.4 5.4 5.9 7.3 6.9 nan 5.7 6.3 8.2 6.5 6.6 8.5 8.5 9.0 10.1 11.2 11.8 13.3 15.3 15.8 15.6 14.6 14.0 13.0 12.7 12.4 12.4 13.6
3.0 nan 2.7 2.1 2.2 3.0 4.2 5.2 3.3 4.8 4.5 5.7 5.8 5.9 5.5 4.9 5.4 5.4 nan 5.4 5.9 6.4 6.2 6.3 6.1 nan 8.5 9.9 10.4 11.0 11.2 12.3 nan 16.3 17.2 19.5 18.3 18.1 16.1 15.2 15.3 13.6 13.5 12.4
Water_Equivalent
0.00 0.00 0.00 0.00 0.00 0.00 0.00 0.00 0.14 0.00 0.01 0.00 0.00 0.00 0.00 0.00 0.00 0.00 0.00 0.00 0.00 0.00 0.00 0.00 0.00 0.00 0.00 0.00 0.00 0.00 0.00 0.00 0.00 0.00 0.00 0.00 0.00 0.00 0.00 0.00 0.00 0.00 0.00 0.00
0.03 0.00 0.00 0.00 0.00 0.02 0.01 0.00 0.00 0.00 0.00 0.00 0.00 0.00 0.00 0.00 0.00 0.00 0.00 0.00 0.00 0.00 0.00 0.00 0.00 0.00 0.00 0.00 0.00 0.00 0.00 0.00 0.00 0.00 0.00 0.00 0.00 0.00 0.00 0.00 0.00 0.00 0.00 0.00
0.03 0.00 0.00 0.02 0.00 0.00 0.00 0.00 0.00 0.00 0.00 0.00 0.00 0.00 0.00 0.00 0.00 0.00 0.00 0.00 0.00 0.00 0.00 0.00 0.00 0.00 0.00 0.00 0.00 0.00 0.00 0.00 0.00 0.00 0.00 0.00 0.00 0.00 0.00 0.00 0.00 0.00 0.00 0.00
0.32 0.01 0.18 0.00 0.00 0.00 0.00 0.01 0.02 0.00 0.00 0.00 0.00 0.00 0.00 0.00 0.00 0.00 0.00 0.00 0.00 0.00 0.00 0.00 0.00 0.00 0.00 0.00 0.00 0.00 0.00 0.00 0.00 0.00 0.00 0.00 0.00 0.00 0.00 0.00 0.00 0.00 0.00 0.00
0.23 0.08 0.00 0.00 0.00 0.00 0.00 0.01 0.00 0.00 0.00 0.00 0.00 0.00 0.00 0.00 0.00 0.00 0.00 0.00 0.00 0.00 0.00 0.00 0.00 0.00 0.00 0.00 0.00 0.00 0.00 0.00 0.00 0.00 0.00 0.00 0.00 0.00 0.00 0.00 0.00 0.00 0.00 0.00
0.02 0.16 0.01 0.00 0.00 0.00 0.00 0.08 0.00 0.00 0.00 0.00 0.00 0.00 0.00 0.00 0.00 0.00 0.00 0.00 0.00 0.00 0.00 0.00 0.00 0.00 0.00 0.00 0.00 0.00 0.00 0.00 0.00 0.00 0.00 0.01 0.00 0.00 0.00 0.00 0.00 0.00 0.00 0.00
0.03 0.20 0.01 0.00 0.00 0.00 0.02 0.03 0.00 0.00 0.00 0.00 0.00 0.00 0.00 0.00 0.00 0.00 0.00 0.00 0.00 0.00 0.00 0.00 0.00 0.00 0.00 0.00 0.00 0.00 0.00 0.00 0.00 0.00 0.01 0.00 0.01 0.00 0.00 0.01 0.00 0.01 0.01 0.00
0.13 0.28 0.49 0.00 0.00 0.02 0.02 0.00 0.00 0.00 0.00 0.00 0.00 0.00 0.00 0.00 0.00 0.00 0.00 0.00 0.00 0.00 0.00 0.00 0.00 0.00 0.00 0.00 0.00 0.00 0.00 0.00 0.00 0.00 0.00 0.01 0.01 0.00 0.00 0.02 0.08 0.09 0.10 0.07
0.07 0.02 0.00 0.00 0.00 0.00 0.00 0.00 0.00 0.00 0.00 0.00 0.00 0.00 0.00 0.00 0.00 0.00 0.00 0.00 0.00 0.00 0.00 0.00 0.00 0.00 0.00 0.00 0.00 0.00 0.01 0.01 0.00 0.00 0.00 0.00 0.03 0.03 0.12 0.09 0.23 0.22 0.18 0.17
0.01 0.00 0.00 0.00 0.00 0.00 0.00 0.00 0.00 0.00 0.00 0.00 0.00 0.00 0.00 0.00 0.00 0.00 0.00 0.00 0.00 0.00 0.00 0.00 0.00 0.00 0.00 0.00 0.00 0.01 0.06 0.04 0.02 0.02 0.02 0.01 0.03 0.07 0.23 0.27 0.31 0.23 0.24 0.22
0.00 0.00 0.00 0.00 0.00 0.00 0.00 0.00 0.00 0.00 0.00 0.00 0.00 0.00 0.00 0.00 0.00 0.00 0.00 0.00 0.00 0.00 0.00 0.00 0.00 0.00 0.00 0.00 0.02 0.03 0.04 0.09 0.12 0.08 0.07 0.17 0.17 0.30 0.26 0.07 0.21 0.28 0.19 0.13
0.00 0.00 0.00 0.00 0.00 0.00 0.00 0.00 0.00 0.00 0.00 0.00 0.00 0.00 0.00 0.00 0.00 0.00 0.01 0.00 0.00 0.00 0.00 0.00 0.00 0.00 0.00 0.01 0.03 0.05 0.06 0.11 0.20 0.34 0.31 0.36 0.55 0.68 nan nan nan nan nan 0.05
0.00 0.00 0.00 0.00 0.00 0.00 0.00 0.00 0.00 0.00 0.00 0.00 0.00 0.00 0.00 0.00 0.00 nan 0.00 0.00 0.00 0.00 0.00 0.00 0.00 0.01 0.00 0.01 0.03 0.05 0.09 0.09 0.14 0.27 0.35 0.46 0.59 0.46 0.57 0.15 nan nan nan nan
0.00 0.00 0.00 0.00 0.00 0.00 0.00 0.00 0.00 0.00 0.00 0.00 0.00 0.00 0.00 0.00 0.00 0.00 0.00 0.00 0.00 0.00 0.00 0.00 0.02 0.01 0.02 0.03 0.03 0.03 0.05 nan 0.21 0.23 0.26 0.41 0.51 0.46 0.40 0.49 0.61 0.58 nan nan
0.00 0.00 0.00 0.00 0.00 0.00 0.00 0.00 0.00 0.00 0.00 0.00 0.00 0.00 0.00 0.02 0.01 0.00 0.00 0.00 0.00 0.00 0.01 0.02 0.02 0.01 0.01 0.03 0.07 0.05 0.05 0.12 0.15 0.20 0.24 0.29 0.42 0.49 0.45 0.56 0.59 0.55 0.34 0.11
0.00 0.00 0.00 0.00 0.00 0.00 0.00 0.00 0.00 0.00 0.00 0.00 0.00 0.00 0.01 0.01 0.01 0.00 0.00 0.01 0.12 0.07 0.04 0.04 0.02 0.01 0.02 0.08 0.04 0.03 0.02 nan 0.20 0.25 0.25 0.37 0.44 0.49 0.58 0.57 0.69 0.46 0.43 0.33
0.15 0.09 0.02 0.03 0.00 0.00 0.00 0.00 0.01 0.01 0.02 0.01 0.01 0.01 0.01 0.01 0.01 0.00 0.01 0.02 0.05 0.07 0.06 0.06 0.06 0.02 0.08 0.04 0.06 0.05 0.08 0.10 nan 0.25 0.33 0.33 0.37 0.43 0.46 0.59 0.61 0.55 0.49 0.20
0.00 0.00 0.01 0.07 0.12 0.06 0.01 0.00 0.01 0.01 0.04 0.05 0.03 0.03 0.04 0.06 0.08 0.05 0.04 0.04 0.02 0.02 0.04 0.04 0.08 0.13 0.03 0.04 0.11 0.11 0.08 0.14 0.19 0.36 0.31 0.40 0.38 0.41 0.53 0.56 0.54 0.63 0.63 0.26
0.00 0.02 0.01 0.01 0.03 0.07 0.04 0.11 0.04 0.04 0.09 0.09 0.15 0.16 0.17 0.13 0.10 0.10 0.08 0.07 0.03 0.03 0.01 0.03 nan 0.02 0.02 0.03 0.11 0.09 0.24 0.42 0.49 0.50 0.41 nan 0.45 0.40 0.50 0.53 0.63 0.64 0.53 0.55
0.00 0.00 0.01 0.02 0.01 0.03 0.10 0.01 0.05 0.11 0.11 0.14 0.14 0.12 0.10 0.08 0.08 0.08 0.07 0.11 0.15 0.21 0.23 0.10 0.03 0.02 0.04 0.05 nan 0.22 0.42 0.57 0.67 0.61 0.51 0.54 0.53 0.58 0.57 nan 0.70 0.72 0.66 0.65
0.41 0.29 0.15 0.12 0.08 0.06 0.14 0.19 0.19 0.14 0.17 0.18 0.19 0.14 0.16 0.16 0.12 0.09 0.07 0.06 0.03 0.11 0.04 nan 0.05 0.14 0.12 0.20 0.19 0.29 0.57 0.77 0.96 0.92 0.75 0.73 0.70 0.61 0.63 0.67 0.79 0.70 0.84 0.66
0.27 0.50 0.64 0.39 0.21 0.19 0.24 0.24 0.17 0.16 0.16 0.13 0.12 0.09 0.07 0.07 0.05 0.06 0.10 0.28 0.14 nan 0.10 0.10 0.19 nan 0.34 nan 0.74 0.73 0.85 0.89 1.14 1.19 1.10 0.89 0.82 0.89 0.79 0.77 0.89 1.09 1.08 0.96
0.46 0.61 0.47 0.58 0.67 0.69 0.41 0.42 0.29 0.22 0.21 0.25 0.26 0.18 0.32 0.35 0.30 0.45 0.32 0.24 0.33 nan 0.22 0.31 nan nan nan 0.94 0.83 0.84 0.96 0.99 1.07 1.16 1.22 1.24 1.00 0.94 1.23 1.26 1.26 1.16 1.17 1.02
0.59 0.63 0.77 0.89 0.88 0.73 0.59 0.80 0.71 0.73 0.72 0.57 0.59 0.68 0.66 0.77 0.56 0.64 0.67 nan nan 0.71 0.73 0.83 nan nan nan 0.85 0.97 1.02 1.09 1.16 1.40 1.46 1.45 nan 1.34 1.52 1.44 1.33 1.49 1.14 1.10 1.07
0.58 0.65 0.74 0.64 0.56 0.74 0.59 0.71 0.55 0.67 0.63 0.50 0.59 0.70 0.69 0.87 1.09 1.11 0.77 0.87 nan 0.77 0.71 nan nan nan 0.68 0.80 0.96 1.01 1.21 1.37 1.59 2.04 1.82 2.05 2.18 2.01 1.58 1.62 1.54 1.49 1.70 1.36
0.37 0.62 0.57 0.54 0.71 0.61 0.62 0.42 0.50 0.64 0.50 0.44 0.42 0.53 0.60 0.68 0.75 0.63 0.69 0.84 0.77 nan 0.63 0.72 0.94 0.79 0.77 0.95 0.97 0.98 1.14 1.27 1.37 1.59 1.80 1.88 1.91 1.81 1.72 1.66 1.64 1.57 1.62 1.82
0.38 nan 0.31 0.25 0.25 0.35 0.47 0.57 0.37 0.51 0.49 0.59 0.58 0.61 0.58 0.51 0.59 0.59 nan 0.58 0.63 0.67 0.62 0.61 0.64 nan 0.89 1.01 0.99 1.04 1.07 1.23 nan 1.77 1.86 2.13 1.98 2.03 1.75 1.69 1.75 1.61 1.61 1.48
SL_Ratio
nan nan nan nan nan nan 5.4 nan 7.6 nan 6.7 5.0 nan nan nan nan nan nan nan nan nan nan nan nan nan nan nan nan nan nan nan nan nan nan nan nan nan nan nan nan nan nan nan nan
3.8 nan nan nan nan 5.1 5.5 6.0 nan nan nan nan nan nan nan nan nan nan nan nan nan nan nan nan nan nan nan nan nan nan nan nan nan nan nan nan nan nan nan nan nan nan nan nan
6.0 nan nan 2.5 nan 5.0 5.7 nan nan 6.3 5.8 nan nan nan nan nan nan nan nan nan nan nan nan nan nan nan nan nan nan nan nan nan nan nan nan nan nan nan nan nan nan nan nan nan
3.3 2.5 3.8 2.5 nan nan nan 4.8 5.2 nan nan nan nan nan nan 5.0 nan nan nan nan nan nan nan nan nan nan nan nan nan nan nan nan nan nan nan nan nan nan nan nan nan nan nan nan
4.0 3.6 nan nan nan nan 5.0 6.3 5.0 nan nan nan nan nan nan nan nan nan nan nan nan nan nan nan nan nan nan nan nan nan nan nan nan nan 5.0 5.0 6.7 6.3 nan 7.5 nan nan nan nan
9.7 8.8 5.9 nan nan nan nan 7.2 nan nan nan nan nan nan nan nan nan nan nan nan nan nan nan nan nan nan nan nan nan nan nan nan nan nan 6.9 7.3 6.9 7.0 nan nan 6.3 nan nan nan
7.8 8.9 3.8 nan nan nan 10.0 6.7 nan nan nan nan nan nan nan nan nan nan nan nan nan nan nan nan nan nan nan nan nan nan nan nan nan nan 6.7 7.1 6.7 nan 7.0 6.7 6.3 4.3 5.3 nan
10.3 9.0 6.4 nan nan 8.2 6.8 nan 7.5 nan nan nan nan nan nan nan nan nan nan nan nan nan nan nan nan nan nan nan nan nan nan 5.0 2.5 7.5 6.7 6.3 7.0 nan 5.0 5.5 4.7 3.6 3.9 3.3
6.2 7.4 nan nan 5.0 nan nan nan nan nan nan nan nan nan nan nan nan nan nan nan nan nan nan nan nan nan 10.0 nan nan 8.1 7.5 7.8 8.3 7.5 nan 7.5 6.7 6.6 4.2 4.4 4.3 4.2 4.4 4.4
8.8 nan nan nan nan nan nan nan nan nan nan nan nan nan nan nan nan nan nan nan nan nan nan nan nan nan nan 7.5 6.3 7.4 5.4 4.0 3.4 5.8 6.0 4.8 5.3 6.2 5.0 4.3 4.4 4.6 4.9 5.0
7.1 nan nan nan nan nan nan nan nan nan nan nan nan nan nan nan nan nan nan nan nan nan 7.5 nan nan nan nan 10.0 7.3 7.9 5.4 4.6 4.3 3.8 4.9 4.3 3.6 4.9 4.7 4.3 5.4 5.0 4.9 5.4
nan nan nan nan nan nan nan nan nan nan nan nan nan nan nan 5.0 nan nan 10.5 nan 10.0 nan 5.0 nan nan 10.0 5.0 6.6 7.3 8.6 6.9 5.0 4.9 4.7 4.5 4.4 4.5 4.0 nan nan nan nan nan 5.4
nan nan nan nan nan nan nan nan nan nan nan nan nan nan nan 15.0 nan nan nan nan 7.5 12.5 12.5 8.3 8.8 7.2 6.3 6.8 7.5 8.4 8.4 6.4 5.2 4.7 4.8 5.1 4.8 5.9 6.1 3.7 nan nan nan nan
nan nan nan nan nan nan nan nan nan nan nan nan nan nan nan 11.3 nan 7.5 12.5 nan nan 8.8 9.0 7.5 7.7 7.4 7.0 7.2 7.7 8.2 8.4 nan 6.1 5.4 5.2 5.0 5.0 5.1 5.0 5.7 5.9 4.9 nan nan
nan nan nan nan nan nan nan nan nan nan nan nan nan 10.0 10.0 9.8 9.9 9.4 nan 5.0 8.3 8.3 6.9 7.1 7.4 7.2 7.3 7.6 8.4 7.8 7.6 5.2 5.4 5.0 4.6 4.7 4.6 4.5 4.7 5.1 5.2 5.0 4.7 4.6
nan nan nan nan nan nan nan nan 10.8 9.2 8.8 10.0 9.6 9.3 10.0 9.5 9.1 8.3 6.7 7.5 9.2 9.3 8.0 7.6 7.7 7.3 7.5 8.3 7.8 7.4 6.8 nan 5.8 5.3 4.9 4.6 4.6 5.2 5.8 5.2 5.2 4.9 4.9 5.0
4.2 4.6 4.8 4.0 12.5 8.8 12.5 7.5 9.5 9.8 9.6 10.0 10.6 9.5 9.7 9.4 8.1 8.3 7.3 7.3 7.7 7.8 7.9 7.9 8.5 7.4 8.0 7.3 7.9 7.8 7.1 4.5 nan 4.9 5.2 5.0 4.9 5.4 5.5 5.3 5.0 4.9 5.1 5.0
nan 8.9 9.8 10.2 9.7 10.5 10.0 8.5 9.4 8.7 9.0 8.7 8.5 7.8 7.2 7.3 9.0 9.0 8.7 8.0 7.6 7.8 7.8 7.9 8.2 8.1 7.2 7.7 8.4 8.2 5.6 4.7 5.0 5.2 4.9 5.4 5.7 4.7 5.2 5.1 4.9 5.3 5.2 4.7
nan 8.8 7.7 9.4 9.4 9.6 8.7 5.8 7.1 6.0 5.5 7.1 7.9 7.4 8.3 8.2 8.4 8.7 8.3 8.0 8.0 9.8 8.8 8.9 nan 7.0 7.6 8.0 8.0 6.6 4.2 4.4 4.7 5.1 5.3 nan 4.9 5.3 5.4 5.0 5.2 4.9 4.7 5.6
8.8 7.5 8.6 8.4 7.5 8.8 9.3 9.2 8.5 8.6 8.5 8.8 8.9 9.0 9.3 8.8 9.0 9.0 8.7 8.7 8.8 9.5 9.0 9.2 6.4 7.3 8.5 7.5 nan 4.3 4.2 4.9 5.4 5.7 5.8 5.6 5.5 5.6 5.2 nan 4.5 5.1 5.7 5.9
4.8 5.0 6.7 7.0 7.7 7.9 8.5 8.8 9.2 9.4 9.2 9.1 10.2 10.0 10.0 9.4 9.2 8.5 7.8 8.0 7.9 8.7 7.7 nan 5.7 7.7 6.7 5.7 4.5 5.0 5.1 5.4 5.4 5.7 5.3 5.6 5.3 5.7 5.7 5.1 5.5 5.8 6.1 6.5
7.4 7.1 7.0 7.0 8.0 8.7 8.5 8.8 9.2 9.6 9.7 9.7 9.4 9.3 8.8 8.3 8.6 7.9 7.8 8.5 7.6 nan 7.0 5.0 7.0 nan 6.2 nan 4.9 5.4 5.3 5.4 5.4 5.2 5.7 5.7 5.7 5.7 5.4 5.6 5.9 5.9 6.1 6.0
8.3 8.2 7.5 8.0 8.8 9.1 8.5 8.4 8.8 9.5 9.5 8.7 8.5 9.2 9.0 8.7 7.5 7.6 7.8 7.6 6.8 nan 5.5 6.1 nan nan nan 5.4 5.9 5.9 5.6 5.7 5.9 5.9 5.7 5.2 5.4 5.3 5.3 5.8 5.9 5.9 6.1 6.4
8.7 8.6 8.6 8.1 7.8 8.2 8.7 8.7 8.5 8.6 8.6 8.5 8.3 7.8 7.7 7.3 6.5 6.5 6.2 nan nan 6.7 6.5 6.5 nan nan nan 6.6 6.5 6.2 6.2 6.1 6.1 6.2 5.5 nan 5.2 5.5 5.7 6.3 6.9 6.4 6.4 6.6
8.6 8.1 8.0 8.3 8.4 8.7 8.7 8.4 8.2 8.2 8.5 8.8 8.5 8.3 8.0 7.6 8.2 8.5 7.8 7.9 nan 7.7 7.3 nan nan nan 7.1 7.2 7.2 7.2 7.3 7.3 7.3 6.7 6.8 6.9 7.0 7.1 6.8 7.1 7.1 6.8 6.8 6.8
9.1 9.3 9.4 9.3 9.0 8.7 8.5 8.3 9.0 8.8 8.6 9.2 9.4 9.5 8.9 8.6 8.5 8.6 8.6 8.7 9.0 nan 9.1 8.8 8.7 8.3 8.5 8.9 8.7 9.2 8.9 8.8 8.6 8.4 8.5 8.4 8.2 8.1 8.1 7.8 7.7 7.9 7.7 7.5
7.9 nan 8.8 8.6 8.8 8.7 8.9 9.2 8.8 9.4 9.3 9.7 10.0 9.7 9.6 9.5 9.1 9.2 nan 9.3 9.3 9.5 10.0 10.3 9.5 nan 9.5 9.8 10.5 10.7 10.5 10.0 nan 9.2 9.3 9.2 9.2 9.0 9.2 9.0 8.7 8.5 8.4 8.4